This demonstration page uses our WeatherBlox Daily Observations layout. Learn more.

Left ArrowRight Arrow

Hourly Observations for July 7, 2017

Temp ( °F °C ) Dew Point ( °F °C ) Humidity (%) Winds ( mph kmh ) Pressure ( in mb ) Visibility ( mi km ) Precip ( " mm )
12:53 am 00:53 Clear 78 25.6 52 11.1 40 40 N 3 6 29.95 1014 10 16 0.00 0.00
1:53 am 01:53 Clear 79 26.1 52 11.1 39 39 NNW 3 6 29.95 1014 10 16 0.00 0.00
2:53 am 02:53 Clear 77 25 53 11.7 43 43 N 6 9 29.96 1014 10 16 0.00 0.00
3:53 am 03:53 Clear 74 23.3 54 12.2 50 50 NNW 5 7 29.96 1015 10 16 0.00 0.00
4:53 am 04:53 Clear 73 22.8 53 11.7 50 50 NW 5 7 29.97 1015 10 16 0.00 0.00
5:53 am 05:53 Sunny 72 22.2 54 12.2 53 53 Calm 29.98 1015 10 16 0.00 0.00
6:53 am 06:53 Sunny 75 23.9 54 12.2 48 48 NNW 3 6 29.99 1016 10 16 0.00 0.00
7:53 am 07:53 Sunny 81 27.2 52 11.1 37 37 N 5 7 30.00 1016 10 16 0.00 0.00
8:53 am 08:53 Sunny 86 30 51 10.6 30 30 NNW 7 11 30.00 1016 10 16 0.00 0.00
9:53 am 09:53 Sunny 91 32.8 51 10.6 26 26 WNW 5 7 29.99 1016 10 16 0.00 0.00
10:53 am 10:53 Sunny 95 35 51 10.6 23 23 Calm 29.97 1015 10 16 0.00 0.00
11:53 am 11:53 Sunny 100 37.8 49 9.4 18 18 Calm 29.96 1015 10 16 0.00 0.00
12:53 pm 12:53 Sunny 104 40 40 4.4 11 11 VRB 3 6 29.94 1014 10 16 0.00 0.00
1:53 pm 13:53 Sunny 105 40.6 36 2.2 9 9 WSW 7 11 29.93 1013 10 16 0.00 0.00
2:53 pm 14:53 Sunny 106 41.1 34 1.1 8 8 VRB 5 7 29.91 1013 10 16 0.00 0.00
3:53 pm 15:53 Sunny 107 41.7 32 0 7 7 Calm 29.89 1012 10 16 0.00 0.00
4:53 pm 16:53 Sunny 108 42.2 35 1.7 8 8 W 6 9 29.86 1011 10 16 0.00 0.00
5:53 pm 17:53 Sunny 108 42.2 33 0.6 7 7 NNW 3 6 29.84 1011 10 16 0.00 0.00
6:53 pm 18:53 Sunny 107 41.7 34 1.1 8 8 W 8 13 29.83 1010 10 16 0.00 0.00
7:53 pm 19:53 Sunny 102 38.9 33 0.6 9 9 W 5 7 29.83 1010 10 16 0.00 0.00
8:53 pm 20:53 Clear 94 34.4 32 0 11 11 WNW 5 7 29.83 1010 10 16 0.00 0.00
9:53 pm 21:53 Clear 88 31.1 35 1.7 15 15 WNW 6 9 29.85 1011 10 16 0.00 0.00
10:53 pm 22:53 Clear 81 27.2 41 5 24 24 NW 5 7 29.87 1011 10 16 0.00 0.00
11:53 pm 23:53 Clear 79 26.1 44 6.7 29 29 N 3 6 29.87 1012 10 16 0.00 0.00

Powered by AerisWeather